| time (UTC) | temp C | wind direction | speed KPH | gust KPH | rain 1hr cm | rain 24hr cm | rain mn cm | humidity % | barometer mb |
| 20260508053101 | 7 | 349 | 0.0 | 0.0 | 0.00 | 1.85 | 0.00 | 97 | 1001.6 |
| 20260508051614 | 7 | 349 | 0.0 | 0.0 | 0.00 | 1.85 | 0.00 | 98 | 1001.1 |
| 20260508044600 | 8 | 349 | 0.0 | 0.0 | 0.00 | 1.85 | 0.00 | 98 | 1001.3 |
| 20260508043100 | 8 | 349 | 0.0 | 0.0 | 0.00 | 1.85 | 0.00 | 98 | 1001.4 |
| 20260508041600 | 9 | 350 | 0.0 | 0.0 | 0.00 | 1.85 | 0.00 | 98 | 1001.4 |
| 20260508040105 | 9 | 349 | 0.0 | 0.0 | 0.00 | 1.85 | 0.00 | 98 | 1001.5 |
| 20260508034601 | 8 | 349 | 0.0 | 0.0 | 0.00 | 1.85 | 0.00 | 98 | 1001.6 |
| 20260508033102 | 8 | 349 | 0.0 | 0.0 | 0.00 | 1.85 | 0.00 | 98 | 1001.7 |
| 20260508031601 | 8 | 349 | 0.0 | 0.0 | 0.00 | 1.85 | 0.00 | 98 | 1001.8 |
| 20260508030104 | 8 | 349 | 0.0 | 0.0 | 0.00 | 1.85 | 0.00 | 98 | 1001.8 |
| 20260508024619 | 9 | 349 | 0.0 | 0.0 | 0.00 | 1.85 | 1.85 | 98 | 1001.7 |
| 20260508023058 | 9 | 349 | 0.0 | 0.0 | 0.00 | 1.85 | 1.85 | 98 | 1001.4 |
| 20260508021606 | 9 | 350 | 0.0 | 0.0 | 0.00 | 1.85 | 1.85 | 98 | 1001.5 |
| 20260508020111 | 9 | 349 | 0.0 | 0.0 | 0.00 | 1.85 | 1.85 | 98 | 1001.6 |
| 20260508014558 | 9 | 349 | 0.0 | 0.0 | 0.00 | 1.85 | 1.85 | 98 | 1001.7 |
| 20260508013058 | 8 | 350 | 0.0 | 0.0 | 0.00 | 1.85 | 1.85 | 98 | 1001.5 |
| 20260508011606 | 8 | 350 | 0.0 | 0.0 | 0.00 | 1.85 | 1.85 | 97 | 1001.3 |
| 20260508010058 | 8 | 346 | 0.0 | 0.0 | 0.00 | 1.85 | 1.85 | 97 | 1001.8 |
| 20260508004601 | 8 | 196 | 0.0 | 0.0 | 0.00 | 1.85 | 1.85 | 97 | 1001.8 |
| 20260508003058 | 8 | 196 | 0.0 | 0.0 | 0.00 | 1.85 | 1.85 | 97 | 1001.5 |
| 20260508001558 | 7 | 198 | 0.0 | 0.0 | 0.00 | 1.85 | 1.85 | 97 | 1001.5 |
| 20260508000058 | 8 | 355 | 0.0 | 0.0 | 0.00 | 1.85 | 1.85 | 97 | 1001.9 |
| 20260507234559 | 8 | 340 | 0.0 | 0.0 | 0.00 | 1.85 | 1.85 | 97 | 1001.8 |
| 20260507233101 | 8 | 360 | 0.0 | 1.6 | 0.00 | 1.85 | 1.85 | 96 | 1001.9 |
| 20260507231600 | 8 | 344 | 0.0 | 0.0 | 0.00 | 1.85 | 1.85 | 96 | 1002.5 |
| 20260507230110 | 8 | 216 | 0.0 | 0.0 | 0.00 | 1.85 | 1.85 | 96 | 1002.1 |
| 20260507224559 | 9 | 211 | 0.0 | 0.0 | 0.00 | 1.85 | 1.85 | 96 | 1002.5 |
| 20260507223058 | 10 | 9 | 0.0 | 1.6 | 0.00 | 1.85 | 1.85 | 96 | 1002.2 |
| 20260507221600 | 10 | 10 | 0.0 | 0.0 | 0.00 | 1.85 | 1.85 | 96 | 1002.5 |
| 20260507220100 | 10 | 10 | 0.0 | 1.6 | 0.00 | 1.85 | 1.85 | 97 | 1002.6 |
| 20260507214559 | 9 | 15 | 0.0 | 1.6 | 0.08 | 1.85 | 1.85 | 97 | 1002.4 |
| 20260507213059 | 8 | 355 | 0.0 | 1.6 | 0.18 | 1.85 | 1.85 | 96 | 1002.0 |
| 20260507211604 | 8 | 180 | 0.0 | 3.2 | 0.33 | 1.85 | 1.85 | 96 | 1001.8 |
| 20260507210111 | 8 | 360 | 0.0 | 3.2 | 0.46 | 1.83 | 1.83 | 96 | 1002.4 |
| 20260507204601 | 8 | 11 | 0.0 | 3.2 | 0.61 | 1.78 | 1.78 | 96 | 1003.3 |
| 20260507203129 | 8 | 360 | 0.0 | 3.2 | 0.81 | 1.65 | 1.65 | 95 | 1003.6 |
| 20260507201558 | 10 | 284 | 0.0 | 3.2 | 0.89 | 1.50 | 1.50 | 96 | 1003.9 |
| 20260507194618 | 10 | 5 | 0.0 | 1.6 | 0.79 | 1.12 | 1.12 | 96 | 1004.6 |
| 20260507193103 | 9 | 355 | 0.0 | 1.6 | 0.64 | 0.81 | 0.81 | 95 | 1004.4 |
| 20260507191558 | 10 | 350 | 0.0 | 3.2 | 0.46 | 0.61 | 0.61 | 95 | 1004.5 |
| 20260507184558 | 10 | 347 | 1.6 | 16.1 | 0.20 | 0.33 | 0.33 | 94 | 1004.9 |
| 20260507183058 | 11 | 331 | 0.0 | 4.8 | 0.05 | 0.18 | 0.18 | 93 | 1005.1 |
| 20260507181559 | 11 | 200 | 0.0 | 9.7 | 0.00 | 0.15 | 0.15 | 93 | 1004.6 |
| 20260507180058 | 11 | 327 | 0.0 | 14.5 | 0.00 | 0.15 | 0.15 | 92 | 1004.8 |
| 20260507174603 | 11 | 28 | 3.2 | 14.5 | 0.00 | 0.15 | 0.15 | 91 | 1004.7 |
| 20260507173131 | 12 | 19 | 0.0 | 12.9 | 0.00 | 0.15 | 0.15 | 92 | 1005.1 |
| 20260507171600 | 11 | 16 | 0.0 | 9.7 | 0.00 | 0.15 | 0.15 | 92 | 1005.4 |
| 20260507164559 | 11 | 181 | 0.0 | 3.2 | 0.00 | 0.15 | 0.15 | 91 | 1006.1 |
| 20260507163059 | 12 | 5 | 0.0 | 6.4 | 0.00 | 0.15 | 0.15 | 91 | 1006.5 |
| 20260507161612 | 12 | 173 | 1.6 | 16.1 | 0.00 | 0.15 | 0.15 | 90 | 1007.0 |
| 20260507160104 | 12 | 90 | 1.6 | 17.7 | 0.00 | 0.15 | 0.15 | 91 | 1007.4 |
| 20260507154558 | 12 | 16 | 0.0 | 14.5 | 0.00 | 0.15 | 0.15 | 91 | 1007.6 |
| 20260507153100 | 12 | 15 | 0.0 | 9.7 | 0.00 | 0.15 | 0.15 | 92 | 1008.0 |
| 20260507151603 | 12 | 9 | 0.0 | 6.4 | 0.00 | 0.15 | 0.15 | 93 | 1008.5 |
| 20260507150058 | 12 | 12 | 1.6 | 16.1 | 0.00 | 0.15 | 0.15 | 93 | 1008.5 |
| 20260507144617 | 11 | 11 | 0.0 | 4.8 | 0.00 | 0.15 | 0.15 | 94 | 1008.9 |
| 20260507143103 | 11 | 5 | 0.0 | 14.5 | 0.00 | 0.15 | 0.15 | 94 | 1009.5 |
| 20260507141603 | 11 | 9 | 0.0 | 12.9 | 0.00 | 0.15 | 0.15 | 94 | 1009.9 |
| 20260507140106 | 11 | 17 | 0.0 | 9.7 | 0.00 | 0.15 | 0.15 | 94 | 1010.1 |
| 20260507134559 | 11 | 5 | 1.6 | 17.7 | 0.00 | 0.15 | 0.15 | 95 | 1010.1 |
| 20260507133144 | 11 | 355 | 0.0 | 6.4 | 0.00 | 0.15 | 0.15 | 96 | 1010.3 |
| 20260507131559 | 10 | 19 | 0.0 | 9.7 | 0.00 | 0.15 | 0.15 | 96 | 1010.1 |
| 20260507130107 | 10 | 262 | 0.0 | 12.9 | 0.00 | 0.15 | 0.15 | 96 | 1010.0 |
| 20260507124606 | 10 | 5 | 0.0 | 3.2 | 0.00 | 0.15 | 0.15 | 96 | 1010.3 |
| 20260507123058 | 11 | 355 | 0.0 | 14.5 | 0.00 | 0.15 | 0.15 | 95 | 1010.4 |
| 20260507121602 | 11 | 27 | 0.0 | 3.2 | 0.00 | 0.15 | 0.15 | 96 | 1010.8 |
| 20260507114611 | 11 | 12 | 0.0 | 3.2 | 0.00 | 0.15 | 0.15 | 97 | 1011.8 |
| 20260507113058 | 10 | 360 | 0.0 | 3.2 | 0.00 | 0.15 | 0.15 | 97 | 1011.9 |
| 20260507111606 | 10 | 12 | 0.0 | 1.6 | 0.00 | 0.15 | 0.15 | 97 | 1011.8 |
| 20260507110101 | 10 | 11 | 0.0 | 3.2 | 0.00 | 0.15 | 0.15 | 97 | 1011.9 |
| 20260507104601 | 10 | 350 | 0.0 | 16.1 | 0.00 | 0.15 | 0.15 | 97 | 1011.9 |
| 20260507103059 | 10 | 5 | 0.0 | 3.2 | 0.03 | 0.15 | 0.15 | 97 | 1012.6 |
| 20260507101601 | 9 | 14 | 0.0 | 3.2 | 0.03 | 0.15 | 0.15 | 97 | 1012.0 |
| 20260507100058 | 9 | 15 | 0.0 | 0.0 | 0.05 | 0.15 | 0.15 | 96 | 1012.1 |
| 20260507094602 | 10 | 360 | 0.0 | 1.6 | 0.08 | 0.15 | 0.15 | 97 | 1012.6 |
| 20260507093058 | 10 | 10 | 0.0 | 3.2 | 0.08 | 0.13 | 0.13 | 97 | 1012.8 |
| 20260507091600 | 10 | 5 | 0.0 | 1.6 | 0.08 | 0.13 | 0.13 | 97 | 1012.6 |
| 20260507090105 | 10 | 355 | 0.0 | 0.0 | 0.08 | 0.10 | 0.10 | 97 | 1012.8 |
| 20260507084601 | 10 | 13 | 0.0 | 0.0 | 0.05 | 0.05 | 0.05 | 97 | 1012.9 |
| 20260507083059 | 9 | 13 | 0.0 | 0.0 | 0.05 | 0.05 | 0.05 | 96 | 1012.9 |
| 20260507081558 | 9 | 13 | 0.0 | 1.6 | 0.05 | 0.05 | 0.05 | 96 | 1012.9 |
| 20260507080100 | 10 | 355 | 0.0 | 0.0 | 0.00 | 0.00 | 0.00 | 96 | 1013.2 |
| 20260507074601 | 10 | 360 | 0.0 | 0.0 | 0.00 | 0.00 | 0.00 | 96 | 1013.6 |
| 20260507073108 | 10 | 360 | 0.0 | 0.0 | 0.00 | 0.00 | 0.00 | 96 | 1013.8 |
| 20260507071558 | 10 | 9 | 0.0 | 1.6 | 0.00 | 0.00 | 0.00 | 96 | 1014.1 |
| 20260507070105 | 10 | 13 | 0.0 | 1.6 | 0.00 | 0.00 | 0.00 | 96 | 1014.0 |
| 20260507064559 | 9 | 360 | 0.0 | 0.0 | 0.00 | 0.00 | 0.00 | 95 | 1014.1 |
| 20260507063101 | 10 | 355 | 0.0 | 1.6 | 0.00 | 0.00 | 0.00 | 95 | 1014.2 |
| 20260507061559 | 10 | 360 | 0.0 | 1.6 | 0.00 | 0.00 | 0.00 | 95 | 1014.4 |
| 20260507054559 | 10 | 17 | 0.0 | 0.0 | 0.00 | 0.00 | 0.00 | 95 | 1014.7 |